Location: Melara
(45.0500°N, 11.1833°E)
Time: 20:23:41
(UTC+00:00)

SL-16 R/B - Pass Details

Date: 26 May 2022
Orbit: 985 x 1006 km, 99.6° (Epoch: 02 July)

Event Time Altitude Azimuth Distance (km) Brightness Sun altitude
Exits shadow 02:59:47 - 238° (WSW) 3,028 4.4 -6.0°
Reaches altitude 10° 03:01:21 10° 250° (WSW) 2,760 4.3 -5.8°
Maximum altitude 03:03:47 12° 274° (W) 2,594 4.3 -5.5°
Drops below altitude 10° 03:06:14 10° 297° (WNW) 2,774 4.6 -5.1°
Sets 03:10:36 0° 326° (NNW) 3,735 5.6 -4.5°
